This is the latest recevied weather packets stored in our database for station/object KC0CAU. If no packets are shown the sender has not sent any weather packets the latest 10 day(s).
| Time | Temp. | Humidity | Pressure | Rain* | Wind** | Luminosity | Snow |
|---|---|---|---|---|---|---|---|
| 1778097630 | 8.89° C | 44% | 1018.5 hPa | 0 mm | - | - | - |
| 1778096734 | 8.89° C | 44% | 1018.7 hPa | 0 mm | - | - | - |
| 1778095827 | 8.33° C | 47% | 1018.9 hPa | 0 mm | - | - | - |
| 1778094926 | 8.33° C | 44% | 1018.9 hPa | 0 mm | - | - | - |
| 1778094023 | 8.89° C | 46% | 1019.2 hPa | 0 mm | - | - | - |
| 1778093119 | 7.78° C | 50% | 1019.5 hPa | 0 mm | - | - | - |
| 1778092218 | 7.78° C | 46% | 1019.8 hPa | 0 mm | - | - | - |
| 1778091313 | 7.78° C | 48% | 1020.1 hPa | 0 mm | - | - | - |
| 1778090412 | 6.67° C | 47% | 1020.4 hPa | 0 mm | - | - | - |
| 1778089510 | 6.11° C | 48% | 1020.5 hPa | 0 mm | - | - | - |
| 1778088609 | 6.11° C | 49% | 1020.7 hPa | 0 mm | - | - | - |
| 1778087708 | 6.11° C | 50% | 1020.8 hPa | 0 mm | - | - | - |
| 1778086806 | 5.56° C | 51% | 1020.9 hPa | 0 mm | - | - | - |
| 1778085904 | 5° C | 52% | 1021.1 hPa | 0 mm | - | - | - |
| 1778085001 | 5° C | 52% | 1021.2 hPa | 0 mm | - | - | - |
| 1778084162 | 5° C | 54% | 1021.5 hPa | 0 mm | - | - | - |
| 1778083271 | 4.44° C | 54% | 1021.5 hPa | 0 mm | - | - | - |
| 1778082359 | 4.44° C | 52% | 1021.5 hPa | 0 mm | - | - | - |
| 1778081458 | 4.44° C | 53% | 1021.5 hPa | 0 mm | - | - | - |
| 1778080558 | 4.44° C | 53% | 1021.6 hPa | 0 mm | - | - | - |
| 1778079654 | 4.44° C | 54% | 1021.6 hPa | 0 mm | - | - | - |
| 1778078752 | 3.89° C | 55% | 1021.6 hPa | 0 mm | - | - | - |
| 1778077848 | 3.33° C | 59% | 1021.7 hPa | 0 mm | - | - | - |
| 1778076945 | 2.78° C | 60% | 1021.7 hPa | 0 mm | - | - | - |
| 1778076042 | 2.22° C | 64% | 1021.7 hPa | 0 mm | - | - | - |
* Rain latest hour (hover to see other rain measurements)
** Current wind speed in m/s (hover to see current wind gust speed)